Location: Ayer Observatory
(42.2600°N, 71.0700°W)
Time: 23:21:32
(UTC-04:00)

XW-2A - Pass Details

Date: 08 August 2020
Orbit: 428 x 443 km, 97.3° (Epoch: 26 September)

Event Time Altitude Azimuth Distance (km) Brightness Sun altitude
Exits shadow 21:59:19 10° 222° (SW) 1,555 ? -20.0°
Reaches altitude 10° 21:59:25 10° 224° (SW) 1,526 ? -20.0°
Maximum altitude 22:01:37 17° 266° (W) 1,178 ? -20.3°
Drops below altitude 10° 22:03:50 10° 309° (NW) 1,533 ? -20.5°
Sets 22:06:23 0° 330° (NNW) 2,405 ? -20.9°
